星链-5250 (STARLINK-5250 )

导读

STARLINK-5250是美国SpaceX星链星座中的一颗互联网卫星,于2022年10月28日发射入轨,属于星链快速扩张阶段组网卫星。它运行在约550公里的低地球轨道,旨在为全球提供高速低延迟宽带互联网服务,尤其弥补偏远地区基础设施不足的缺口。作为星链庞大星座的一员,该卫星助力构建全球覆盖的卫星通信网络,推动全球互联接入能力提升。

Basic Information
目录编号:
54200
目录名称:
STARLINK-5250
国际标识:
2022-141AV
轨道中心:
EARTH
卫星名称:
星链-5250
卫星全名:
星链-5250 (STARLINK-5250 )
卫星状态:
在轨 (已飞行1408 天)
发射日期:
2022-10-28 UTC
国别 :
美国 (US)
星等 :
--
Orbit Information
数据来源 国际轨道数据 AOE轨道数据
星历时间 2026-09-05T01:59:02+0800
12小时前
查看轨道信息
2026-09-03T02:00:00+0800
2天前
查看轨道信息
半长轴 6837.846km 6837.849km
偏心率 0.0001093 0.0001208
轨道倾角 53.160° 53.159°
近地点辐角 75.816° 58.002°
升交点赤经 261.740° 271.108°
平近点角 284.296° 44.694°
近地点 458.961km 458.885km
远地点 460.457km 460.539km
周期 93.786分钟 93.786分钟
每日圈数 15.354083 15.354071
Detailed Information
固有亮度:
5
最大亮度:
2.5
卫星平台:
Starlink v1.5
覆盖范围:
全球
运营商:
太空探索技术公司
运营商所在国:
美国
制造商(研发单位):
太空探索技术公司
制造商所在国:
美国
使用方式:
暂无
Satellite Introduction
星链(Starlink)计划是由太空探索技术公司(SpaceX)提出的一个巨型低轨卫星互联网星座项目,计划在2019年至2024年间在太空搭建由约1.2万颗卫星组成的“星链”网络,其中1584颗将部署在地球上空550千米处的近地轨道,并从2020年开始工作。该卫星仍在工作。
2D Orbit Map
3D Orbit Map
Orbit Altitude Analysis Chart
Orbit Inclination Analysis Chart
Orbit Comprehensive Analysis Chart
View Comprehensive Chart
Conjunction Data List
Event ID Objects TCA Miss Dist (km) Collision Risk Probability Collision Risk Index (CRI) Action
CDM_260907-152005-339705-420021
2026-09-07T
15:20:55+0000
0.853 km
远距离
3.835615E-5 中风险 0.67
CDM_260907-165405-339705-420021
2026-09-07T
16:54:39+0000
1.134 km
极远距离
1.446689E-5 中风险 0.58
CDM_260903-082705-420006-638721
2026-09-03T
08:27:50+0000
2.775 km
极远距离
1.316898E-6 低风险 0.37
CDM_260907-134705-339705-420021
2026-09-07T
13:47:11+0000
2.729 km
极远距离
1.297221E-6 低风险 0.37
CDM_260905-085105-237305-420021
2026-09-05T
08:51:30+0000
2.825 km
极远距离
1.293021E-6 低风险 0.37
CDM_260906-144805-420006-281221
2026-09-06T
14:48:16+0000
2.314 km
极远距离
1.265099E-6 低风险 0.37
CDM_260906-103405-420006-629121
2026-09-06T
10:34:43+0000
2.881 km
极远距离
1.261448E-6 低风险 0.37
CDM_260906-003605-420006-607021
2026-09-06T
00:36:55+0000
2.968 km
极远距离
1.145154E-6 低风险 0.36
CDM_260906-025705-420006-607021
2026-09-06T
02:57:34+0000
2.980 km
极远距离
1.14041E-6 低风险 0.36
CDM_260906-083505-420006-461121
2026-09-06T
08:35:37+0000
2.848 km
极远距离
7.1308E-7 极低风险 0.32